Terminal Aerodrome Forecast
Issued by NWS Grand Junction, CO

Home | Current Version | Previous Version | Text Only | Print | Product List | Glossary On
Versions: 1 2 3 4 5 6 7 8 9 10 11 12 13 14
000
FTUS45 KGJT 172332
TAFGJT
TAF
KGJT 172332Z 1800/1824 30005KT P6SM SCT250
     FM180200 07004KT P6SM SCT250
     FM180700 12012KT P6SM SKC
     FM181900 20012G22KT P6SM FEW070 SCT120=

USA.gov is the U.S. government's official web portal to all federal, state and local government web resources and services.